Total_Precipitation_Accumulation
0.05 0.07 0.08 0.08 0.08 0.10 0.15 0.21 0.22 0.16 0.12 0.12 0.07 0.06 0.11 0.17 0.22 0.20 0.20 0.13 0.04 0.02 0.02 0.01 0.01 0.01 0.01 0.05 0.08 0.10 0.22 0.29 0.28 0.24 0.14 0.08 0.05 0.03
0.08 0.13 0.13 0.10 0.09 0.11 0.16 0.24 0.27 0.21 0.12 0.08 0.06 0.06 0.11 0.20 0.18 0.14 0.14 0.10 0.04 0.03 0.03 0.03 0.03 0.04 0.08 0.15 0.20 0.22 0.26 0.27 0.27 0.24 0.19 0.12 0.07 0.03
0.04 0.08 0.08 0.07 0.07 0.09 0.11 0.15 0.18 0.18 0.14 0.11 0.10 0.09 0.10 0.20 0.18 0.13 0.10 0.08 0.07 0.04 0.02 0.02 0.03 0.08 0.15 0.20 0.27 0.30 0.27 0.25 0.28 0.27 0.23 0.17 0.10 0.05
0.01 0.03 0.03 0.02 0.03 0.03 0.05 0.07 0.10 0.13 0.14 0.12 0.11 0.10 0.12 0.19 0.22 0.16 0.12 0.11 0.11 0.04 0.02 0.02 0.04 0.05 0.08 0.10 0.17 0.28 0.33 0.32 0.31 0.29 0.24 0.19 0.12 0.06
0.01 0.00 0.01 0.01 0.02 0.02 0.01 0.01 0.01 0.03 0.09 0.13 0.14 0.13 0.13 0.14 0.18 0.20 0.18 0.20 0.16 0.08 0.04 0.03 0.04 0.05 0.05 0.05 0.09 0.17 0.27 0.37 0.38 0.34 0.27 0.21 0.13 0.07
0.00 0.00 0.01 0.01 0.01 0.00 0.00 0.00 0.00 0.03 0.07 0.11 0.14 0.15 0.15 0.14 0.18 0.26 0.30 0.33 0.25 0.16 0.11 0.08 0.06 0.04 0.03 0.03 0.04 0.09 0.18 0.30 0.39 0.37 0.31 0.24 0.14 0.06
0.00 0.00 0.00 0.00 0.00 0.00 0.00 0.00 0.00 0.01 0.02 0.04 0.06 0.07 0.09 0.10 0.12 0.20 0.32 0.43 0.37 0.27 0.22 0.20 0.17 0.13 0.07 0.04 0.02 0.03 0.08 0.15 0.25 0.27 0.20 0.14 0.10 0.06
0.00 0.00 0.00 0.00 0.00 0.00 0.00 0.00 0.00 0.00 0.01 0.01 0.01 0.01 0.03 0.07 0.09 0.19 0.33 0.42 0.50 0.48 0.40 0.35 0.30 0.25 0.18 0.11 0.08 0.04 0.03 0.04 0.05 0.06 0.04 0.03 0.03 0.02
0.00 0.00 0.00 0.00 0.00 0.00 0.00 0.00 0.00 0.00 0.00 0.01 0.01 0.01 0.01 0.04 0.09 0.19 0.32 0.48 0.63 0.69 0.62 0.57 0.43 0.33 0.27 0.20 0.14 0.08 0.05 0.03 0.02 0.01 0.01 0.01 0.01 0.00
0.00 0.00 0.00 0.00 0.00 0.00 0.00 0.00 0.00 0.00 0.00 0.00 0.00 0.00 0.00 0.01 0.06 0.10 0.17 0.28 0.45 0.60 0.68 0.77 0.73 0.57 0.42 0.31 0.24 0.16 0.10 0.07 0.04 0.02 0.01 0.01 0.01 0.01
0.00 0.00 0.00 0.00 0.00 0.00 0.00 0.00 0.00 0.00 0.00 0.00 0.00 0.00 0.00 0.00 0.01 0.02 0.03 0.04 0.08 0.15 0.25 0.43 0.60 0.65 0.64 0.55 0.41 0.29 0.19 0.13 0.10 0.08 0.06 0.04 0.04 0.03
0.00 0.00 0.00 0.00 0.00 0.00 0.00 0.00 0.00 0.00 0.00 0.00 0.00 0.00 0.00 0.00 0.00 0.00 0.01 0.02 0.02 0.03 0.04 0.09 0.19 0.29 0.42 0.50 0.46 0.39 0.28 0.23 0.19 0.13 0.09 0.07 0.07 0.06
0.00 0.00 0.00 0.00 0.00 0.00 0.00 0.00 0.00 0.00 0.00 0.00 0.00 0.00 0.00 0.00 0.00 0.00 0.01 0.02 0.05 0.06 0.06 0.07 0.09 0.11 0.17 0.26 0.32 0.34 0.31 0.25 0.21 0.17 0.14 0.10 0.08 0.05
0.00 0.00 0.00 0.00 0.00 0.00 0.00 0.00 0.00 0.00 0.00 0.00 0.00 0.00 0.00 0.00 0.00 0.00 0.00 0.01 0.03 0.04 0.05 0.06 0.11 0.12 0.11 0.12 0.16 0.18 0.20 0.23 0.23 0.20 0.17 0.13 0.09 0.07
0.00 0.00 0.00 0.00 0.00 0.00 0.00 0.00 0.00 0.00 0.00 0.00 0.00 0.00 0.00 0.00 0.00 0.00 0.00 0.00 0.01 0.02 0.02 0.02 0.07 0.13 0.13 0.12 0.12 0.12 0.13 0.16 0.17 0.17 0.18 0.15 0.12 0.09
0.00 0.00 0.00 0.00 0.00 0.00 0.00 0.00 0.00 0.00 0.00 0.00 0.00 0.00 0.00 0.00 0.00 0.00 0.00 0.00 0.00 0.01 0.01 0.02 0.04 0.06 0.11 0.13 0.13 0.13 0.15 0.18 0.16 0.15 0.16 0.18 0.19 0.21
0.00 0.00 0.00 0.00 0.00 0.00 0.00 0.00 0.00 0.00 0.00 0.00 0.00 0.00 0.00 0.00 0.00 0.00 0.00 0.00 0.00 0.00 0.01 0.01 0.02 0.04 0.05 0.06 0.10 0.14 0.16 0.19 0.16 0.13 0.12 0.15 0.20 0.25
0.00 0.00 0.00 0.00 0.00 0.00 0.00 0.00 0.00 0.00 0.00 0.00 0.00 0.00 0.00 0.00 0.00 0.00 0.00 0.00 0.00 0.01 0.01 0.01 0.02 0.03 0.05 0.06 0.04 0.07 0.10 0.12 0.13 0.15 0.18 0.15 0.14 0.11
0.00 0.00 0.00 0.00 0.00 0.00 0.00 0.00 0.00 0.00 0.00 0.00 0.00 0.00 0.00 0.00 0.00 0.00 0.00 0.00 0.00 0.00 0.01 0.01 0.02 0.02 0.04 0.07 0.11 0.07 0.05 0.05 0.07 0.14 0.23 0.20 0.13 0.07
0.00 0.00 0.00 0.00 0.00 0.00 0.00 0.00 0.00 0.00 0.00 0.00 0.00 0.00 0.00 0.00 0.00 0.00 0.00 0.00 0.00 0.00 0.00 0.00 0.01 0.02 0.03 0.04 0.07 0.11 0.10 0.07 0.06 0.09 0.15 0.17 0.13 0.07
0.00 0.00 0.00 0.00 0.00 0.00 0.00 0.00 0.00 0.00 0.00 0.00 0.00 0.00 0.00 0.00 0.00 0.00 0.00 0.00 0.00 0.00 0.00 0.00 0.00 0.01 0.02 0.04 0.06 0.07 0.09 0.11 0.11 0.11 0.12 0.14 0.16 0.13
0.00 0.00 0.00 0.00 0.00 0.00 0.00 0.00 0.00 0.00 0.00 0.00 0.00 0.00 0.00 0.00 0.00 0.00 0.00 0.00 0.00 0.00 0.00 0.00 0.00 0.01 0.03 0.06 0.07 0.07 0.08 0.10 0.12 0.12 0.11 0.11 0.11 0.13
0.00 0.00 0.00 0.00 0.00 0.00 0.00 0.00 0.00 0.00 0.00 0.00 0.00 0.00 0.00 0.00 0.00 0.00 0.00 0.00 0.00 0.00 0.00 0.00 0.00 0.00 0.01 0.03 0.06 0.08 0.09 0.12 0.16 0.18 0.17 0.11 0.05 0.04